Regional Weather Roundup
Issued by NWS

Home | Current Version | Previous Version | Text Only | Print | Product List | Glossary Off
Versions: 1 2 3 4 5 6 7 8 9 10 11 12 13 14 15 16 17 18 19 20 21 22 23 24 25 26 27 28 29 30 31 32 33 34 35 36 37 38 39 40 41 42 43 44 45 46 47 48 49 50

000
ASUS43 KMPX 051601
RWRMN
WEATHER ROUNDUP FOR MINNESOTA
NATIONAL WEATHER SERVICE TWIN CITIES/CHANHASSEN MN
1100 AM CDT THU MAY 05 2016


NOTE: "FAIR" INDICATES FEW OR NO CLOUDS BELOW 12,000 FEET WITH NO
SIGNIFICANT WEATHER AND/OR OBSTRUCTIONS TO VISIBILITY. N/A MEANS
CURRENT SKY AND/OR WEATHER CONDITIONS ARE NOT AVAILABLE.

MNZ060>063-068>070-051700-
   Twin Cities Metro

CITY           SKY/WX    TMP DP  RH WIND       PRES   REMARKS
TWIN CITIES    MOSUNNY   61  29  29 SW10      30.05F
ST PAUL        MOSUNNY   60  33  36 S8        30.05F
CRYSTAL        SUNNY     63  31  30 SW10      30.02F
BLAINE         MOSUNNY   63  30  29 SW13      30.03F
EDEN PRAIRIE   SUNNY     63  32  31 SW9       30.04F
SOUTH ST PAUL  MOSUNNY   62  30  30 SW6       30.05F
LAKE ELMO      FAIR      59  37  44 S12       30.06F
$$
MNZ001>005-007-008-013>017-022>024-027-028-051700-
   Northwest Minnesota

CITY           SKY/WX    TMP DP  RH WIND       PRES   REMARKS
BEMIDJI        SUNNY     71  36  27 S12       29.90F
HALLOCK        SUNNY     84  39  20 W15G22    29.76F
ROSEAU         SUNNY     75  46  35 W15G21    29.79F
WARROAD        SUNNY     73  48  40 SW15G21   29.78F
THIEF RVR FALL SUNNY     73  41  31 SW14      29.86F
CROOKSTON      SUNNY     75  43  31 SW14      29.86F
FOSSTON        SUNNY     72  37  28 SW18      29.89S
DETROIT LAKES  SUNNY     70  37  30 SW10      29.94F
MOORHEAD       SUNNY     72  41  33 S10       29.91F
PARK RAPIDS    SUNNY     71  33  24 SW14      29.94F
MAHNOMEN       FAIR      71  39  30 S14G22    29.90F
$$
MNZ006-009>011-018-025>026-051700-
   North Central Minnesota

CITY           SKY/WX    TMP DP  RH WIND       PRES   REMARKS
BAUDETTE       SUNNY     72  38  29 SW13G21   29.81F
FLAG ISLAND    SUNNY     50  41  71 S13       29.76F
INTL FALLS     SUNNY     69  37  30 S13G22    29.83F
WASKISH        SUNNY     73  39  29 SW14G23   29.85F
BIG FORK       SUNNY     70  36  28 S14G22    29.89F
LONGVILLE      SUNNY     66  30  26 S13G18    29.94F
GRAND RAPIDS   SUNNY     64  30  27 S12G21    29.94F
CRANE LAKE     SUNNY     63  36  36 S7        29.88F
ORR            SUNNY     64  28  25 SW7       29.87F
COOK           SUNNY     63  34  34 SW9G18    29.91F
WALKER         FAIR      68  32  26 S13G18    29.92F
$$
MNZ012-019>021-037-051700-
   Northeast Minnesota

CITY           SKY/WX    TMP DP  RH WIND       PRES   REMARKS
DULUTH         MOSUNNY   58  37  45 W14       29.96F
ELY            SUNNY     63  30  29 W16       29.91F
HIBBING        MOSUNNY   57  34  41 SW13      29.93F
EVELETH        MOSUNNY   54  32  43 SW7       29.95F
DULUTH HARBOR  MOSUNNY   54  39  58 SW16      29.98F
TWO HARBORS    SUNNY     61  43  51 S9        29.93F
SILVER BAY     MOSUNNY   57  36  44 S7        29.92F
GRAND MARAIS     N/A     42  35  76 SW8       29.98F
G MARAIS ARPRT MOSUNNY   50  28  43 S6        29.94F
$$
MNZ029>031-032-039>041-046>048-054>057-064-051700-
   West Central Minnesota

CITY           SKY/WX    TMP DP  RH WIND       PRES   REMARKS
FERGUS FALLS   SUNNY     72  39  30 S13       29.92F
WHEATON        SUNNY     79  45  29 S10       29.97S
MORRIS         SUNNY     72  39  30 S9G16     29.97F
ALEXANDRIA     SUNNY     68  33  27 S15       30.00F
ELBOW LAKE     FAIR      71  40  32 S15       29.97F
WADENA         SUNNY     70  37  30 S13       29.96F
GLENWOOD       SUNNY     70  32  24 S15       30.01F
APPLETON       SUNNY     72  36  26 SW9       29.99F
BENSON         SUNNY     72  28  20 SW10      29.99F
ORTONVILLE     SUNNY     73  41  31 S6        29.98S
MADISON        SUNNY     73  37  27 SW8       29.99F
WILLMAR        FAIR      68  34  28 S8        30.03F
$$
MNZ033>034-036-042>043-049>051-058-059-051700-
   Central Minnesota

CITY           SKY/WX    TMP DP  RH WIND       PRES   REMARKS
ST CLOUD       SUNNY     63  30  28 SW9       30.02F
SAUK CENTRE    FAIR      68  33  28 S10       30.00F
PAYNESVILLE    SUNNY     67  29  24 S13       30.03F
AITKIN         SUNNY     66  21  18 S10       29.96F
PINE RIVER     SUNNY     66  36  32 SW9       29.99F
BRAINERD       SUNNY     66  30  26 SW13      29.98F
STAPLES        SUNNY     68  30  24 SW10      29.97F
LONG PRAIRIE   FAIR      64  34  32 S12       30.01F
LITTLE FALLS   SUNNY     66  30  26 S10       30.01S
LITCHFIELD     SUNNY     68  28  22 S5        30.03F
BUFFALO        SUNNY     62  31  31 S9        30.04F
MAPLE LAKE     SUNNY     64  34  32 S7        30.04F
HUTCHINSON     SUNNY     65  35  32 S7        30.06F
$$
MNZ037-044-045-052-053-051700-
   East Central Minnesota

CITY           SKY/WX    TMP DP  RH WIND       PRES   REMARKS
PRINCETON        N/A     64  30  27 S9        30.02F
MORA           PTSUNNY   55  30  38 CALM      30.04S
CAMBRIDGE      SUNNY     63  39  42 S9        29.98F
RUSH CITY      PTSUNNY   61  32  33 S9        30.01F
MOOSE LAKE     MOSUNNY   61  32  33 SW9       29.97F
HINCKLEY       CLOUDY    59  36  41 SW8       30.03R
CLOQUET        MOSUNNY   59  27  29 SW9G16    29.97F
MCGREGOR       PTSUNNY   59  32  36 S12       29.98F
$$
MNZ071>073-080-081-089-090-097-098-051700-
   Southwest Minnesota

CITY           SKY/WX    TMP DP  RH WIND       PRES   REMARKS
MONTEVIDEO     SUNNY     72  37  28 S8        30.02F
GRANITE FALLS  SUNNY     72  37  28 S10       30.04F
CANBY          SUNNY     74  42  30 SW8       30.02F
MARSHALL       SUNNY     72  36  26 VRB6      30.03F
REDWOOD FALLS  MOSUNNY   68  32  26 S7        30.03F
OLIVIA         SUNNY     68  32  26 S8        30.02F
PIPESTONE      SUNNY     66  34  30 SW9       30.05S
WINDOM         SUNNY     66  36  32 CALM      30.06F
WORTHINGTON    SUNNY     64  35  34 SW7       30.08S
JACKSON        SUNNY     64  27  24 SW7       30.07F
TRACY          SUNNY     69  35  28 SW6       30.04F
SLAYTON        SUNNY     66  31  27 SW7       30.06F
$$
MNZ065>067-074>077-082>085-091>093-051700-
   South Central Minnesota

CITY           SKY/WX    TMP DP  RH WIND       PRES   REMARKS
MANKATO        SUNNY     63  28  27 S8        30.08S
NEW ULM        SUNNY     63  30  29 SW7       30.06S
ST JAMES       SUNNY     61  30  31 SW9       30.07S
FAIRMONT       SUNNY     61  32  33 SW10      30.07F
GLENCOE        SUNNY     65  34  32 S10       30.04F
OWATONNA       MOSUNNY   61  28  29 S9        30.07F
WASECA         SUNNY     63  30  29 SW8       30.09S
ALBERT LEA     SUNNY     61  30  31 SW5       30.09S
$$
MNZ078>079-086>088-094>096-051700-
   Southeast Minnesota

CITY           SKY/WX    TMP DP  RH WIND       PRES   REMARKS
ROCHESTER      CLOUDY    53  34  48 SW7       30.09F
RED WING       PTSUNNY   57  36  44 S3        30.07S
STANTON        MOSUNNY   62  31  30 SW8       30.05F
DODGE CENTER   CLOUDY    55  32  41 S7        30.08F
WINONA         SUNNY     55  34  44 CALM      30.08S
AUSTIN         CLOUDY    55  34  44 CALM      30.09S
PRESTON        CLOUDY    55  34  45 W5        30.09S
$$
ABBREVIATIONS USED IN REMARKS
   TC - TEMPERATURES IN CELSIUS
  WCI - WIND CHILL INDEX
   HX - HEAT INDEX
  VSB - VISIBILITY
$$




USA.gov is the U.S. government's official web portal to all federal, state and local government web resources and services.